Weather History for Tacoma Narrows, WA

Change the Weather History Date:

Saturday, September 28, 2013

  Actual Average Record
Temperature  
Mean Temperature 56 °F -  
Max Temperature 61 °F 63 °F 81 °F (2003)
Min Temperature 51 °F 48 °F 44 °F (1999)
Degree Days  
Heating Degree Days 9    
Growing Degree Days 6 (Base 50)    
Moisture  
Dew Point 52 °F    
Average Humidity 88    
Maximum Humidity 94    
Minimum Humidity 81    
Precipitation  
Precipitation 0.00 in - - ()
Sea Level Pressure  
Sea Level Pressure 29.55 in    
Wind  
Wind Speed 8 mph (South)    
Max Wind Speed 20 mph    
Max Gust Speed 32 mph    
Visibility 6 miles    
Events Fog , Rain    
Averages and records for this station are not official NWS values.
T = Trace of Precipitation, MM = Missing Value Source: NWS Daily Summary

Daily Weather History Graph

Daily Weather History Graph

Search for Another Location

Airport:

Trip Planner

Search our weather history database for the weather conditions in past years. The results will help you decide how hot, cold, wet, or windy it might be!

Date:

Astronomy

Sep. 28, 2013 Rise Set
Actual Time 7:05 AM PDT 6:55 PM PDT
Civil Twilight 6:35 AM PDT 7:25 PM PDT
Nautical Twilight 5:59 AM PDT 8:01 PM PDT
Astronomical Twilight 5:23 AM PDT 8:37 PM PDT
Moon 12:37 AM PDT (9/28) 3:36 PM PDT (9/28)
Length of Visible Light 12h 50m
Length of Day
11h 49m
Waning Crescent, 35% of the Moon is Illuminated
Sep 28
Waning Crescent
Oct 4
New
Oct 11
First Quarter
Oct 18
Full
Oct 26
Last Quarter

Hourly Weather History & Observations

Time (PDT) Temp. Dew Point Humidity Pressure Visibility Wind Dir Wind Speed Gust Speed Precip Events Conditions
12:53 AM 54.0 °F 50.0 °F 86% 29.84 in 10.0 mi South 6.9 mph - N/A   Mostly Cloudy
1:53 AM 55.0 °F 51.1 °F 86% 29.83 in 10.0 mi Calm Calm - 0.00 in Rain Light Rain
2:53 AM 54.0 °F 51.1 °F 90% 29.81 in 10.0 mi South 6.9 mph - 0.00 in Rain Light Rain
3:12 AM 53.6 °F 51.8 °F 94% 29.79 in 10.0 mi SSE 4.6 mph - 0.00 in Rain Light Rain
3:21 AM 53.6 °F 51.8 °F 94% 29.79 in 10.0 mi SSE 3.5 mph - 0.00 in Rain Light Rain
3:53 AM 54.0 °F 52.0 °F 93% 29.76 in 10.0 mi Calm Calm - 0.00 in Rain Light Rain
4:22 AM 53.6 °F 51.8 °F 94% 29.73 in 10.0 mi Calm Calm - 0.00 in Rain Light Rain
4:53 AM 54.0 °F 50.0 °F 86% 29.72 in 7.0 mi Calm Calm - 0.00 in Rain Light Rain
5:38 AM 53.6 °F 51.8 °F 94% 29.67 in 6.0 mi Variable 3.5 mph - N/A Rain Light Rain
5:53 AM 54.0 °F 51.1 °F 90% 29.65 in 10.0 mi Calm Calm - N/A Rain Light Rain
5:59 AM 53.6 °F 51.8 °F 94% 29.65 in 10.0 mi Variable 3.5 mph - N/A Rain Light Rain
6:42 AM 55.4 °F 51.8 °F 88% 29.63 in 8.0 mi South 8.1 mph - N/A Rain Light Rain
6:53 AM 55.0 °F 52.0 °F 89% 29.62 in 8.0 mi SSE 5.8 mph - N/A Rain Light Rain
7:10 AM 53.6 °F 51.8 °F 94% 29.61 in 10.0 mi SSE 4.6 mph - N/A Rain Light Rain
7:53 AM 55.9 °F 53.1 °F 90% 29.58 in 4.0 mi South 10.4 mph - N/A Rain Rain
7:57 AM 55.4 °F 53.6 °F 94% 29.58 in 3.0 mi South 9.2 mph - N/A Rain Light Rain
8:53 AM 57.0 °F 55.0 °F 93% 29.55 in 2.0 mi South 13.8 mph - N/A Rain Rain
9:53 AM 59.0 °F 55.0 °F 87% 29.56 in 2.0 mi South 17.3 mph 26.5 mph N/A Rain Rain
10:53 AM 57.9 °F 55.0 °F 90% 29.54 in 2.0 mi SSW 15.0 mph 19.6 mph N/A Rain Rain
11:11 AM 57.2 °F 53.6 °F 88% 29.53 in 3.0 mi SSW 11.5 mph 20.7 mph N/A Rain Rain
11:18 AM 57.2 °F 55.4 °F 94% 29.52 in 2.5 mi SSW 8.1 mph - N/A Rain Rain
11:27 AM 57.2 °F 55.4 °F 94% 29.52 in 4.0 mi South 10.4 mph - N/A Rain Light Rain
11:49 AM 57.2 °F 55.4 °F 94% 29.54 in 0.5 mi SW 8.1 mph - N/A Fog , Rain Heavy Rain
11:53 AM 57.9 °F 55.0 °F 90% 29.53 in 0.5 mi SSW 13.8 mph 23.0 mph N/A Fog , Rain Heavy Rain
11:56 AM 57.2 °F 53.6 °F 88% 29.52 in 1.0 mi SSW 15.0 mph 25.3 mph N/A Rain Heavy Rain
12:05 PM 57.2 °F 53.6 °F 88% 29.52 in 1.0 mi South 15.0 mph 25.3 mph N/A Rain Light Rain
12:53 PM 57.9 °F 55.0 °F 90% 29.50 in 3.0 mi South 13.8 mph - N/A Rain Light Rain
1:53 PM 61.0 °F 55.0 °F 81% 29.43 in 7.0 mi South 13.8 mph 24.2 mph N/A Rain Light Rain
2:30 PM 60.8 °F 55.4 °F 82% 29.42 in 8.0 mi South 18.4 mph 26.5 mph N/A Rain Light Rain
2:53 PM 60.1 °F 55.9 °F 86% 29.41 in 10.0 mi South 18.4 mph 26.5 mph N/A Rain Light Rain
3:18 PM 60.8 °F 55.4 °F 82% 29.40 in 3.0 mi South 18.4 mph 29.9 mph 0.00 in Rain Light Rain
3:53 PM 60.1 °F 55.9 °F 86% 29.38 in 5.0 mi South 19.6 mph 32.2 mph 0.00 in   Overcast
4:36 PM 60.8 °F 55.4 °F 82% 29.42 in 1.8 mi WSW 16.1 mph 28.8 mph N/A Rain Heavy Rain
4:46 PM 57.2 °F 53.6 °F 88% 29.40 in 1.5 mi WSW 13.8 mph 29.9 mph N/A Rain Rain
4:50 PM 57.2 °F 53.6 °F 88% 29.41 in 3.0 mi SW 15.0 mph 24.2 mph N/A Rain Rain
4:53 PM 57.0 °F 54.0 °F 89% 29.41 in 3.0 mi WSW 11.5 mph 24.2 mph N/A Rain Light Rain
5:53 PM 54.0 °F 50.0 °F 86% 29.44 in 5.0 mi SSW 12.7 mph 23.0 mph N/A Rain Light Rain
6:00 PM 53.6 °F 48.2 °F 82% 29.44 in 8.0 mi SSW 16.1 mph 23.0 mph N/A Rain Light Rain
6:53 PM 53.1 °F 50.0 °F 89% 29.46 in 10.0 mi South 15.0 mph 23.0 mph N/A Rain Light Rain
7:53 PM 53.1 °F 48.9 °F 86% 29.48 in 10.0 mi South 13.8 mph 20.7 mph N/A   Overcast
8:53 PM 54.0 °F 48.9 °F 83% 29.49 in 10.0 mi South 15.0 mph 20.7 mph N/A   Overcast
9:14 PM 53.6 °F 48.2 °F 82% 29.49 in 9.0 mi South 15.0 mph - N/A Rain Light Rain
9:23 PM 53.6 °F 48.2 °F 82% 29.49 in 9.0 mi South 16.1 mph 21.9 mph N/A Rain Light Rain
9:53 PM 53.1 °F 48.0 °F 83% 29.50 in 10.0 mi South 15.0 mph 28.8 mph N/A Rain Light Rain
10:53 PM 52.0 °F 48.9 °F 89% 29.51 in 5.0 mi South 12.7 mph 23.0 mph N/A Rain Rain
11:06 PM 51.8 °F 48.2 °F 88% 29.51 in 10.0 mi South 9.2 mph 18.4 mph N/A   Overcast
11:15 PM 51.8 °F 48.2 °F 88% 29.51 in 10.0 mi South 9.2 mph 16.1 mph N/A   Mostly Cloudy
11:53 PM 52.0 °F 48.0 °F 86% 29.52 in 10.0 mi South 16.1 mph 21.9 mph N/A   Mostly Cloudy